Regional Weather Roundup
Issued by NWS

Home | Current Version | Previous Version | Graphics & Text | Print | Product List | Glossary On
Versions: 1 2 3 4 5 6 7 8 9 10 11 12 13 14 15 16 17 18 19 20 21 22 23 24 25 26 27 28 29 30 31 32 33 34 35 36 37 38 39 40 41 42 43 44 45 46 47 48 49 50
884
ASUS43 KFSD 201610
RWRSD

WEATHER ROUNDUP FOR SOUTH DAKOTA
NATIONAL WEATHER SERVICE SIOUX FALLS SD
1000 AM CST TUE FEB 20 2018

NOTE: "FAIR" INDICATES FEW OR NO CLOUDS BELOW 12,000 FEET WITH NO
SIGNIFICANT WEATHER AND/OR OBSTRUCTIONS TO VISIBILITY.


SDZ001>005-009-010-012>017-201700-
NORTHWEST AND NORTH CENTRAL SOUTH DAKOTA

CITY           SKY/WX    TMP DP  RH WIND       PRES   REMARKS
BUFFALO          N/A     -8 -14  74 W7        29.99R WCI -23
FAITH            N/A     -3  -6  87 W12       30.10R WCI -21
MOBRIDGE       MIX PCPN   8   0  69 NW13      30.09S WCI  -8
$$

SDZ012>016-024>037-041>051-057-063-072>074-201700-
SOUTHWEST AND SOUTH CENTRAL SOUTH DAKOTA

CITY           SKY/WX    TMP DP  RH WIND       PRES   REMARKS
RAPID CTY ARPT MIX PCPN  -4 -11  72 NW9       30.07R WCI -20
PIERRE         CLOUDY     4   0  83 NW17      30.16R WCI -16
CUSTER         SUNNY     -1 -10  65 W5        29.79F WCI -11
ELLSWORTH AFB  SUNNY     -4 -11  74 NW7       30.05R WCI -18
PHILIP         MOSUNNY    2  -3  80 NW9       30.16R WCI -13
PINE RIDGE     SUNNY     -5 -10  79 SW8       30.09R WCI -20
SPEARFISH        N/A      0 -11  60 W9        30.00S WCI -16
WINNER         FAIR       5  -2  72 NW17      30.15R WCI -14
$$

SDZ004>011-016>023-039-040-201700-
NORTHEAST SOUTH DAKOTA

CITY           SKY/WX    TMP DP  RH WIND       PRES   REMARKS
ABERDEEN       MIX PCPN   7   1  76 NW18      30.11R WCI -12
WATERTOWN      CLOUDY     4  -1  80 NW15      30.01R WCI -14
BROOKINGS      CLOUDY     5  -1  76 NW16      30.02R WCI -14
SISSETON         N/A      6   2  83 NW20      30.05R WCI -14
$$

SDZ017-020-022-023-036>040-048>070-201700-
SOUTHEAST SOUTH DAKOTA

CITY           SKY/WX    TMP DP  RH WIND       PRES   REMARKS
SIOUX FALLS    CLOUDY     7   0  73 NW20      30.06R WCI -13
HURON          CLOUDY     6   1  80 NW15      30.13R WCI -12
CHAMBERLAIN    FLURRIES   6   1  78 W16       30.16R WCI -12
MITCHELL       CLOUDY     7   2  80 NW18      30.14R WCI -12
YANKTON        MOSUNNY    7   1  76 NW24      30.12R WCI -14
$$

ABBREVIATIONS USED IN REMARKS
   TC - TEMPERATURE IN CELSIUS
  WCI - WIND CHILL INDEX
   HX - HEAT INDEX
  VSB - VISIBILITY





USA.gov is the U.S. government's official web portal to all federal, state and local government web resources and services.